Time,TemperatureF,DewpointF,PressureIn,WindDirection,WindDirectionDegrees,WindSpeedMPH,WindSpeedGustMPH,Humidity,HourlyPrecipIn,Conditions,Clouds,dailyrainin,SoftwareType,DateUTC
2013-01-27 00:01:00,28.0,19.9,25.40,North,0,0.0,0.0,71,0.00,,---,0.00,VWS V13.01,2013-01-27 07:01:00,
2013-01-27 00:06:00,28.0,19.9,25.40,North,0,0.0,0.0,71,0.00,,---,0.00,VWS V13.01,2013-01-27 07:06:00,
2013-01-27 00:13:00,28.2,20.0,25.40,North,0,0.0,0.0,71,0.00,,---,0.00,VWS V13.01,2013-01-27 07:13:00,
2013-01-27 00:18:00,28.4,20.2,25.40,North,0,0.0,0.0,71,0.00,,---,0.00,VWS V13.01,2013-01-27 07:18:00,
2013-01-27 00:23:00,28.6,20.4,25.40,North,0,0.0,0.0,71,0.00,,---,0.00,VWS V13.01,2013-01-27 07:23:00,
2013-01-27 00:28:00,28.4,20.2,25.40,North,0,0.0,0.0,71,0.00,,---,0.00,VWS V13.01,2013-01-27 07:28:00,
2013-01-27 00:33:00,28.6,20.0,25.40,North,0,0.0,0.0,70,0.00,,---,0.00,VWS V13.01,2013-01-27 07:33:00,
2013-01-27 00:38:00,28.6,20.0,25.40,North,0,0.0,0.0,70,0.00,,---,0.00,VWS V13.01,2013-01-27 07:38:00,
2013-01-27 00:43:00,28.6,20.0,25.40,North,0,0.0,0.0,70,0.00,,---,0.00,VWS V13.01,2013-01-27 07:43:00,
2013-01-27 00:48:00,28.4,19.9,25.40,North,0,0.0,0.0,70,0.00,,---,0.00,VWS V13.01,2013-01-27 07:48:00,
2013-01-27 00:53:00,28.6,19.7,25.40,North,0,0.0,0.0,69,0.00,,---,0.00,VWS V13.01,2013-01-27 07:53:00,
2013-01-27 00:58:00,28.6,20.0,25.40,North,0,0.0,0.0,70,0.00,,---,0.00,VWS V13.01,2013-01-27 07:58:00,
2013-01-27 01:03:00,28.9,20.1,25.40,North,0,0.0,0.0,69,0.00,,---,0.00,VWS V13.01,2013-01-27 08:03:00,
2013-01-27 01:08:00,28.9,19.7,25.37,North,0,0.0,0.0,68,0.00,,---,0.00,VWS V13.01,2013-01-27 08:08:00,
2013-01-27 01:13:00,28.9,19.7,25.37,North,0,0.0,0.0,68,0.00,,---,0.00,VWS V13.01,2013-01-27 08:13:00,
2013-01-27 01:18:00,28.9,19.7,25.37,North,0,0.0,0.0,68,0.00,,---,0.00,VWS V13.01,2013-01-27 08:18:00,
2013-01-27 01:23:00,29.1,19.9,25.37,North,0,0.0,0.0,68,0.00,,---,0.00,VWS V13.01,2013-01-27 08:23:00,
2013-01-27 01:28:00,28.9,19.4,25.37,North,0,0.0,0.0,67,0.00,,---,0.00,VWS V13.01,2013-01-27 08:28:00,
2013-01-27 01:33:00,28.9,19.4,25.37,North,0,0.0,0.0,67,0.00,,---,0.00,VWS V13.01,2013-01-27 08:33:00,
2013-01-27 01:38:00,28.9,19.4,25.37,North,0,0.0,0.0,67,0.00,,---,0.00,VWS V13.01,2013-01-27 08:38:00,
2013-01-27 01:43:00,28.9,19.4,25.37,North,0,0.0,0.0,67,0.00,,---,0.00,VWS V13.01,2013-01-27 08:43:00,
2013-01-27 01:48:00,29.1,19.5,25.37,North,0,0.0,0.0,67,0.00,,---,0.00,VWS V13.01,2013-01-27 08:48:00,
2013-01-27 01:53:00,28.9,19.4,25.37,North,0,0.0,0.0,67,0.00,,---,0.00,VWS V13.01,2013-01-27 08:53:00,
2013-01-27 01:58:00,28.9,19.4,25.37,North,0,0.0,0.0,67,0.00,,---,0.00,VWS V13.01,2013-01-27 08:58:00,
2013-01-27 02:03:00,29.3,19.7,25.37,North,0,0.0,0.0,67,0.00,,---,0.00,VWS V13.01,2013-01-27 09:03:00,
2013-01-27 02:08:00,29.1,19.2,25.37,North,0,0.0,0.0,66,0.00,,---,0.00,VWS V13.01,2013-01-27 09:08:00,
2013-01-27 02:13:00,29.3,19.0,25.37,North,0,0.0,0.0,65,0.00,,---,0.00,VWS V13.01,2013-01-27 09:13:00,
2013-01-27 02:18:00,29.3,19.0,25.37,North,0,0.0,0.0,65,0.00,,---,0.00,VWS V13.01,2013-01-27 09:18:00,
2013-01-27 02:23:00,29.3,19.0,25.37,North,0,0.0,0.0,65,0.00,,---,0.00,VWS V13.01,2013-01-27 09:23:00,
2013-01-27 02:28:00,29.3,19.0,25.37,North,0,0.0,0.0,65,0.00,,---,0.00,VWS V13.01,2013-01-27 09:28:00,
2013-01-27 02:33:00,29.1,18.8,25.37,North,0,0.0,0.0,65,0.00,,---,0.00,VWS V13.01,2013-01-27 09:33:00,
2013-01-27 02:38:00,29.1,18.8,25.37,North,0,0.0,0.0,65,0.00,,---,0.00,VWS V13.01,2013-01-27 09:38:00,
2013-01-27 02:43:00,28.9,18.7,25.37,North,0,0.0,0.0,65,0.00,,---,0.00,VWS V13.01,2013-01-27 09:43:00,
2013-01-27 02:48:00,28.9,18.7,25.37,North,0,0.0,0.0,65,0.00,,---,0.00,VWS V13.01,2013-01-27 09:48:00,
2013-01-27 02:53:00,28.9,18.7,25.37,North,0,0.0,0.0,65,0.00,,---,0.00,VWS V13.01,2013-01-27 09:53:00,
2013-01-27 02:58:00,28.9,18.7,25.37,North,0,0.0,0.0,65,0.00,,---,0.00,VWS V13.01,2013-01-27 09:58:00,
2013-01-27 03:03:00,28.8,18.5,25.37,North,0,0.0,0.0,65,0.00,,---,0.00,VWS V13.01,2013-01-27 10:03:00,
2013-01-27 03:08:00,28.8,18.5,25.34,North,0,0.0,0.0,65,0.00,,---,0.00,VWS V13.01,2013-01-27 10:08:00,
2013-01-27 03:13:00,28.8,18.5,25.34,North,0,0.0,0.0,65,0.00,,---,0.00,VWS V13.01,2013-01-27 10:13:00,
2013-01-27 03:18:00,28.8,18.5,25.34,North,0,0.0,0.0,65,0.00,,---,0.00,VWS V13.01,2013-01-27 10:18:00,
2013-01-27 03:23:00,28.8,18.5,25.34,North,0,0.0,0.0,65,0.00,,---,0.00,VWS V13.01,2013-01-27 10:23:00,
2013-01-27 03:28:00,28.6,18.3,25.34,North,0,0.0,0.0,65,0.00,,---,0.00,VWS V13.01,2013-01-27 10:28:00,
2013-01-27 03:33:00,28.6,18.3,25.34,North,0,0.0,0.0,65,0.00,,---,0.00,VWS V13.01,2013-01-27 10:33:00,
2013-01-27 03:38:00,28.4,18.1,25.34,North,0,0.0,0.0,65,0.00,,---,0.00,VWS V13.01,2013-01-27 10:38:00,
2013-01-27 03:43:00,28.4,18.5,25.34,North,0,0.0,0.0,66,0.00,,---,0.00,VWS V13.01,2013-01-27 10:43:00,
2013-01-27 03:48:00,28.4,18.5,25.34,North,0,0.0,0.0,66,0.00,,---,0.00,VWS V13.01,2013-01-27 10:48:00,
2013-01-27 03:53:00,28.6,18.7,25.34,North,0,0.0,0.0,66,0.00,,---,0.00,VWS V13.01,2013-01-27 10:53:00,
2013-01-27 03:58:00,28.8,18.5,25.34,North,0,0.0,0.0,65,0.00,,---,0.00,VWS V13.01,2013-01-27 10:58:00,
2013-01-27 04:03:00,29.5,18.8,25.34,North,0,0.0,0.0,64,0.00,,---,0.00,VWS V13.01,2013-01-27 11:03:00,
2013-01-27 04:08:00,30.0,18.6,25.34,North,0,0.0,0.0,62,0.00,,---,0.00,VWS V13.01,2013-01-27 11:08:00,
2013-01-27 04:13:00,30.2,18.0,25.34,North,0,0.0,0.0,60,0.00,,---,0.00,VWS V13.01,2013-01-27 11:13:00,
2013-01-27 04:18:00,30.4,17.8,25.34,North,0,0.0,0.0,59,0.00,,---,0.00,VWS V13.01,2013-01-27 11:18:00,
2013-01-27 04:23:00,30.6,17.6,25.34,North,0,0.0,0.0,58,0.00,,---,0.00,VWS V13.01,2013-01-27 11:23:00,
2013-01-27 04:28:00,30.7,17.7,25.34,North,0,0.0,0.0,58,0.00,,---,0.00,VWS V13.01,2013-01-27 11:28:00,
2013-01-27 04:33:00,30.9,17.5,25.34,North,0,0.0,0.0,57,0.00,,---,0.00,VWS V13.01,2013-01-27 11:33:00,
2013-01-27 04:38:00,31.1,17.7,25.34,North,0,0.0,0.0,57,0.00,,---,0.00,VWS V13.01,2013-01-27 11:38:00,
2013-01-27 04:43:00,31.1,17.7,25.34,North,0,0.0,0.0,57,0.00,,---,0.00,VWS V13.01,2013-01-27 11:43:00,
2013-01-27 04:48:00,31.1,17.7,25.34,North,0,0.0,0.0,57,0.00,,---,0.00,VWS V13.01,2013-01-27 11:48:00,
2013-01-27 04:53:00,31.3,17.4,25.34,North,0,0.0,0.0,56,0.00,,---,0.00,VWS V13.01,2013-01-27 11:53:00,
2013-01-27 04:58:00,31.3,17.4,25.34,North,0,0.0,0.0,56,0.00,,---,0.00,VWS V13.01,2013-01-27 11:58:00,
2013-01-27 05:03:00,31.1,17.2,25.34,North,0,0.0,0.0,56,0.00,,---,0.00,VWS V13.01,2013-01-27 12:03:00,
2013-01-27 05:08:00,31.1,17.7,25.34,North,0,0.0,0.0,57,0.00,,---,0.00,VWS V13.01,2013-01-27 12:08:00,
2013-01-27 05:13:00,31.1,17.7,25.34,North,0,0.0,0.0,57,0.00,,---,0.00,VWS V13.01,2013-01-27 12:13:00,
2013-01-27 05:18:00,31.1,17.7,25.34,North,0,0.0,0.0,57,0.00,,---,0.00,VWS V13.01,2013-01-27 12:18:00,
2013-01-27 05:23:00,31.1,17.7,25.31,North,0,0.0,0.0,57,0.00,,---,0.00,VWS V13.01,2013-01-27 12:23:00,
2013-01-27 05:28:00,31.1,17.7,25.31,North,0,0.0,0.0,57,0.00,,---,0.00,VWS V13.01,2013-01-27 12:28:00,
2013-01-27 05:33:00,31.3,17.4,25.31,North,0,0.0,0.0,56,0.00,,---,0.00,VWS V13.01,2013-01-27 12:33:00,
2013-01-27 05:38:00,31.3,17.4,25.31,North,0,0.0,0.0,56,0.00,,---,0.00,VWS V13.01,2013-01-27 12:38:00,
2013-01-27 05:43:00,31.5,17.6,25.31,North,0,0.0,0.0,56,0.00,,---,0.00,VWS V13.01,2013-01-27 12:43:00,
2013-01-27 05:48:00,31.6,17.8,25.31,North,0,0.0,0.0,56,0.00,,---,0.00,VWS V13.01,2013-01-27 12:48:00,
2013-01-27 05:53:00,31.6,17.8,25.31,North,0,0.0,0.0,56,0.00,,---,0.00,VWS V13.01,2013-01-27 12:53:00,
2013-01-27 05:58:00,31.6,17.8,25.31,North,0,0.0,0.0,56,0.00,,---,0.00,VWS V13.01,2013-01-27 12:58:00,
2013-01-27 06:03:00,31.6,17.8,25.31,North,0,0.0,0.0,56,0.00,,---,0.00,VWS V13.01,2013-01-27 13:03:00,
2013-01-27 06:08:00,31.8,17.9,25.31,North,0,0.0,0.0,56,0.00,,---,0.00,VWS V13.01,2013-01-27 13:08:00,
2013-01-27 06:13:00,32.0,17.7,25.31,North,0,0.0,0.0,55,0.00,,---,0.00,VWS V13.01,2013-01-27 13:13:00,
2013-01-27 06:18:00,32.0,17.7,25.31,North,0,0.0,0.0,55,0.00,,---,0.00,VWS V13.01,2013-01-27 13:18:00,
2013-01-27 06:23:00,32.0,17.7,25.31,North,0,0.0,0.0,55,0.00,,---,0.00,VWS V13.01,2013-01-27 13:23:00,
2013-01-27 06:28:00,32.0,17.7,25.31,North,0,0.0,0.0,55,0.00,,---,0.00,VWS V13.01,2013-01-27 13:28:00,
2013-01-27 06:33:00,32.0,17.7,25.31,North,0,0.0,0.0,55,0.00,,---,0.00,VWS V13.01,2013-01-27 13:33:00,
2013-01-27 06:38:00,32.0,17.7,25.31,North,0,0.0,0.0,55,0.00,,---,0.00,VWS V13.01,2013-01-27 13:38:00,
2013-01-27 06:43:00,32.0,18.1,25.31,North,0,0.0,0.0,56,0.00,,---,0.00,VWS V13.01,2013-01-27 13:43:00,
2013-01-27 06:48:00,32.2,18.3,25.31,North,0,0.0,0.0,56,0.00,,---,0.00,VWS V13.01,2013-01-27 13:48:00,
2013-01-27 06:53:00,32.2,18.3,25.31,North,0,0.0,0.0,56,0.00,,---,0.00,VWS V13.01,2013-01-27 13:53:00,
2013-01-27 06:58:00,32.4,18.0,25.31,North,0,0.0,0.0,55,0.00,,---,0.00,VWS V13.01,2013-01-27 13:58:00,
2013-01-27 07:03:00,32.4,18.0,25.31,North,0,0.0,0.0,55,0.00,,---,0.00,VWS V13.01,2013-01-27 14:03:00,
2013-01-27 07:08:00,32.5,18.2,25.31,North,0,0.0,0.0,55,0.00,,---,0.00,VWS V13.01,2013-01-27 14:08:00,
2013-01-27 07:13:00,32.5,18.2,25.31,North,0,0.0,0.0,55,0.00,,---,0.00,VWS V13.01,2013-01-27 14:13:00,
2013-01-27 07:18:00,32.7,18.4,25.31,North,0,0.0,0.0,55,0.00,,---,0.00,VWS V13.01,2013-01-27 14:18:00,
2013-01-27 07:23:00,32.7,18.4,25.31,North,0,0.0,0.0,55,0.00,,---,0.00,VWS V13.01,2013-01-27 14:23:00,
2013-01-27 07:28:00,33.1,18.7,25.31,North,0,0.0,0.0,55,0.00,,---,0.00,VWS V13.01,2013-01-27 14:28:00,
2013-01-27 07:33:00,33.1,18.7,25.31,North,0,0.0,0.0,55,0.00,,---,0.00,VWS V13.01,2013-01-27 14:33:00,
2013-01-27 07:38:00,33.4,19.0,25.31,North,0,0.0,0.0,55,0.00,,---,0.00,VWS V13.01,2013-01-27 14:38:00,
2013-01-27 07:43:00,33.8,18.9,25.31,North,0,0.0,0.0,54,0.00,,---,0.00,VWS V13.01,2013-01-27 14:43:00,
2013-01-27 07:48:00,33.8,18.9,25.31,North,0,0.0,0.0,54,0.00,,---,0.00,VWS V13.01,2013-01-27 14:48:00,
2013-01-27 07:53:00,34.0,19.1,25.31,North,0,0.0,0.0,54,0.00,,---,0.00,VWS V13.01,2013-01-27 14:53:00,
2013-01-27 07:58:00,34.2,19.3,25.31,North,0,0.0,0.0,54,0.00,,---,0.00,VWS V13.01,2013-01-27 14:58:00,
2013-01-27 08:03:00,34.3,19.4,25.31,North,0,0.0,0.0,54,0.00,,---,0.00,VWS V13.01,2013-01-27 15:03:00,
2013-01-27 08:08:00,34.5,19.2,25.31,North,0,0.0,0.0,53,0.00,,---,0.00,VWS V13.01,2013-01-27 15:08:00,
2013-01-27 08:13:00,34.9,19.5,25.31,North,0,0.0,0.0,53,0.00,,---,0.00,VWS V13.01,2013-01-27 15:13:00,
2013-01-27 08:18:00,35.1,19.7,25.31,North,0,0.0,0.0,53,0.00,,---,0.00,VWS V13.01,2013-01-27 15:18:00,
2013-01-27 08:23:00,35.4,20.0,25.31,North,0,0.0,0.0,53,0.00,,---,0.00,VWS V13.01,2013-01-27 15:23:00,
2013-01-27 08:28:00,35.6,20.2,25.31,North,0,0.0,0.0,53,0.00,,---,0.00,VWS V13.01,2013-01-27 15:28:00,
2013-01-27 08:33:00,36.1,20.2,25.31,North,0,0.0,0.0,52,0.00,,---,0.00,VWS V13.01,2013-01-27 15:33:00,
2013-01-27 08:38:00,36.7,20.7,25.31,North,0,0.0,0.0,52,0.00,,---,0.00,VWS V13.01,2013-01-27 15:38:00,
2013-01-27 08:43:00,36.7,20.3,25.31,North,0,0.0,0.0,51,0.00,,---,0.00,VWS V13.01,2013-01-27 15:43:00,
2013-01-27 08:48:00,36.9,20.4,25.31,North,0,0.0,0.0,51,0.00,,---,0.00,VWS V13.01,2013-01-27 15:48:00,
2013-01-27 08:53:00,37.0,20.6,25.31,North,0,0.0,0.0,51,0.00,,---,0.00,VWS V13.01,2013-01-27 15:53:00,
2013-01-27 08:58:00,37.6,21.1,25.31,North,0,0.0,0.0,51,0.00,,---,0.00,VWS V13.01,2013-01-27 15:58:00,
2013-01-27 09:03:00,37.9,21.4,25.31,North,0,0.0,0.0,51,0.00,,---,0.00,VWS V13.01,2013-01-27 16:03:00,
2013-01-27 09:08:00,38.5,21.9,25.31,North,0,0.0,0.0,51,0.00,,---,0.00,VWS V13.01,2013-01-27 16:08:00,
2013-01-27 09:13:00,39.2,22.1,25.31,North,0,0.0,0.0,50,0.00,,---,0.00,VWS V13.01,2013-01-27 16:13:00,
2013-01-27 09:18:00,39.7,22.2,25.31,North,0,0.0,0.0,49,0.00,,---,0.00,VWS V13.01,2013-01-27 16:18:00,
2013-01-27 09:22:00,40.5,22.3,25.31,North,0,0.0,0.0,48,0.00,,---,0.00,VWS V13.01,2013-01-27 16:22:00,
2013-01-27 09:27:00,41.2,22.5,25.31,North,0,0.0,0.0,47,0.00,,---,0.00,VWS V13.01,2013-01-27 16:27:00,
2013-01-27 09:33:00,41.7,22.5,25.31,North,0,0.0,0.0,46,0.00,,---,0.00,VWS V13.01,2013-01-27 16:33:00,
2013-01-27 09:38:00,42.4,22.6,25.31,North,0,0.0,0.0,45,0.00,,---,0.00,VWS V13.01,2013-01-27 16:38:00,
2013-01-27 09:42:00,43.0,22.6,25.31,North,0,0.0,0.0,44,0.00,,---,0.00,VWS V13.01,2013-01-27 16:42:00,
2013-01-27 09:48:00,43.7,22.7,25.31,North,0,0.0,0.0,43,0.00,,---,0.00,VWS V13.01,2013-01-27 16:48:00,
2013-01-27 09:53:00,44.6,22.9,25.31,North,0,0.0,0.0,42,0.00,,---,0.00,VWS V13.01,2013-01-27 16:53:00,
2013-01-27 09:58:00,45.9,24.1,25.31,North,0,0.0,0.0,42,0.00,,---,0.00,VWS V13.01,2013-01-27 16:58:00,
2013-01-27 10:03:00,46.9,23.9,25.31,North,0,0.0,0.0,40,0.00,,---,0.00,VWS V13.01,2013-01-27 17:03:00,
2013-01-27 10:08:00,47.7,24.5,25.31,North,0,0.0,0.0,40,0.00,,---,0.00,VWS V13.01,2013-01-27 17:08:00,
2013-01-27 10:13:00,48.0,24.9,25.31,North,0,0.0,0.0,40,0.00,,---,0.00,VWS V13.01,2013-01-27 17:13:00,
2013-01-27 10:18:00,48.4,24.6,25.31,North,0,0.0,0.0,39,0.00,,---,0.00,VWS V13.01,2013-01-27 17:18:00,
2013-01-27 10:23:00,48.9,25.1,25.31,North,0,0.0,0.0,39,0.00,,---,0.00,VWS V13.01,2013-01-27 17:23:00,
2013-01-27 10:28:00,50.2,25.6,25.31,North,0,0.0,0.0,38,0.00,,---,0.00,VWS V13.01,2013-01-27 17:28:00,
2013-01-27 10:33:00,51.4,26.7,25.31,North,0,0.0,0.0,38,0.00,,---,0.00,VWS V13.01,2013-01-27 17:33:00,
2013-01-27 10:38:00,51.8,26.4,25.31,North,0,0.0,0.0,37,0.00,,---,0.00,VWS V13.01,2013-01-27 17:38:00,
2013-01-27 10:43:00,51.6,26.2,25.31,North,0,0.0,0.0,37,0.00,,---,0.00,VWS V13.01,2013-01-27 17:43:00,
2013-01-27 10:48:00,51.8,26.4,25.31,North,0,0.0,0.0,37,0.00,,---,0.00,VWS V13.01,2013-01-27 17:48:00,
2013-01-27 10:53:00,52.3,26.9,25.31,North,0,0.0,0.0,37,0.00,,---,0.00,VWS V13.01,2013-01-27 17:53:00,
2013-01-27 10:58:00,52.7,27.2,25.31,North,0,0.0,0.0,37,0.00,,---,0.00,VWS V13.01,2013-01-27 17:58:00,
2013-01-27 11:03:00,53.6,27.3,25.31,North,0,0.0,0.0,36,0.00,,---,0.00,VWS V13.01,2013-01-27 18:03:00,
2013-01-27 11:08:00,54.1,27.8,25.31,North,0,0.0,0.0,36,0.00,,---,0.00,VWS V13.01,2013-01-27 18:08:00,
2013-01-27 11:13:00,54.9,28.4,25.31,North,0,0.0,0.0,36,0.00,,---,0.00,VWS V13.01,2013-01-27 18:13:00,
2013-01-27 11:18:00,54.9,28.4,25.31,North,0,0.0,0.0,36,0.00,,---,0.00,VWS V13.01,2013-01-27 18:18:00,
2013-01-27 11:23:00,54.5,27.4,25.31,North,0,0.0,0.0,35,0.00,,---,0.00,VWS V13.01,2013-01-27 18:23:00,
2013-01-27 11:28:00,53.8,26.8,25.31,North,0,0.0,0.0,35,0.00,,---,0.00,VWS V13.01,2013-01-27 18:28:00,
2013-01-27 11:33:00,53.1,26.8,25.31,North,0,0.0,0.0,36,0.00,,---,0.00,VWS V13.01,2013-01-27 18:33:00,
2013-01-27 11:38:00,53.1,26.8,25.31,North,0,0.0,0.0,36,0.00,,---,0.00,VWS V13.01,2013-01-27 18:38:00,
2013-01-27 11:42:00,53.1,26.1,25.31,North,0,0.0,0.0,35,0.00,,---,0.00,VWS V13.01,2013-01-27 18:42:00,
2013-01-27 11:47:00,53.2,27.0,25.31,North,0,0.0,0.0,36,0.00,,---,0.00,VWS V13.01,2013-01-27 18:47:00,
2013-01-27 11:52:00,53.4,26.5,25.31,North,0,0.0,0.0,35,0.00,,---,0.00,VWS V13.01,2013-01-27 18:52:00,
2013-01-27 11:57:00,53.2,26.3,25.31,North,0,0.0,0.0,35,0.00,,---,0.00,VWS V13.01,2013-01-27 18:57:00,
2013-01-27 12:02:00,53.1,26.8,25.31,North,0,0.0,0.0,36,0.00,,---,0.00,VWS V13.01,2013-01-27 19:02:00,
2013-01-27 12:07:00,52.3,25.5,25.31,North,0,0.0,0.0,35,0.00,,---,0.00,VWS V13.01,2013-01-27 19:07:00,
2013-01-27 12:12:00,52.2,26.0,25.31,North,0,0.0,0.0,36,0.00,,---,0.00,VWS V13.01,2013-01-27 19:12:00,
2013-01-27 12:17:00,51.8,25.7,25.31,North,0,0.0,0.0,36,0.00,,---,0.00,VWS V13.01,2013-01-27 19:17:00,
2013-01-27 12:22:00,51.6,25.6,25.28,North,0,0.0,0.0,36,0.00,,---,0.00,VWS V13.01,2013-01-27 19:22:00,
2013-01-27 12:27:00,51.8,25.7,25.28,North,0,0.0,0.0,36,0.00,,---,0.00,VWS V13.01,2013-01-27 19:27:00,
2013-01-27 12:32:00,52.0,25.2,25.28,North,0,0.0,0.0,35,0.00,,---,0.00,VWS V13.01,2013-01-27 19:32:00,
2013-01-27 12:37:00,51.8,25.0,25.28,North,0,0.0,0.0,35,0.00,,---,0.00,VWS V13.01,2013-01-27 19:37:00,
2013-01-27 12:42:00,52.0,25.2,25.28,North,0,0.0,0.0,35,0.00,,---,0.00,VWS V13.01,2013-01-27 19:42:00,
2013-01-27 12:47:00,52.2,25.4,25.28,North,0,0.0,0.0,35,0.00,,---,0.00,VWS V13.01,2013-01-27 19:47:00,
2013-01-27 12:52:00,51.8,25.0,25.28,North,0,0.0,0.0,35,0.00,,---,0.00,VWS V13.01,2013-01-27 19:52:00,
2013-01-27 12:57:00,51.3,24.6,25.28,North,0,0.0,0.0,35,0.00,,---,0.00,VWS V13.01,2013-01-27 19:57:00,
2013-01-27 13:02:00,50.5,24.6,25.28,North,0,0.0,0.0,36,0.00,,---,0.00,VWS V13.01,2013-01-27 20:02:00,
2013-01-27 13:08:00,49.6,23.8,25.28,North,0,0.0,0.0,36,0.00,,---,0.00,VWS V13.01,2013-01-27 20:08:00,
2013-01-27 13:13:00,48.9,23.8,25.28,North,0,0.0,0.0,37,0.00,,---,0.00,VWS V13.01,2013-01-27 20:13:00,
2013-01-27 13:18:00,48.0,23.0,25.28,North,0,0.0,0.0,37,0.00,,---,0.00,VWS V13.01,2013-01-27 20:18:00,
2013-01-27 13:23:00,47.5,22.5,25.28,North,0,0.0,0.0,37,0.00,,---,0.00,VWS V13.01,2013-01-27 20:23:00,
2013-01-27 13:28:00,47.5,22.5,25.28,North,0,0.0,0.0,37,0.00,,---,0.00,VWS V13.01,2013-01-27 20:28:00,
2013-01-27 13:33:00,47.7,22.7,25.28,North,0,0.0,0.0,37,0.00,,---,0.00,VWS V13.01,2013-01-27 20:33:00,
2013-01-27 13:38:00,47.5,22.5,25.28,North,0,0.0,0.0,37,0.00,,---,0.00,VWS V13.01,2013-01-27 20:38:00,
2013-01-27 13:43:00,47.3,23.0,25.28,North,0,0.0,0.0,38,0.00,,---,0.00,VWS V13.01,2013-01-27 20:43:00,
2013-01-27 13:48:00,47.3,23.0,25.28,North,0,0.0,0.0,38,0.00,,---,0.00,VWS V13.01,2013-01-27 20:48:00,
2013-01-27 13:53:00,47.5,23.2,25.28,North,0,0.0,0.0,38,0.00,,---,0.00,VWS V13.01,2013-01-27 20:53:00,
2013-01-27 13:58:00,47.5,23.2,25.28,North,0,0.0,0.0,38,0.00,,---,0.00,VWS V13.01,2013-01-27 20:58:00,
2013-01-27 14:03:00,47.3,23.0,25.28,North,0,0.0,0.0,38,0.00,,---,0.00,VWS V13.01,2013-01-27 21:03:00,
2013-01-27 14:07:00,46.9,22.7,25.31,North,0,0.0,0.0,38,0.00,,---,0.00,VWS V13.01,2013-01-27 21:07:00,
2013-01-27 14:12:00,46.4,22.2,25.31,North,0,0.0,0.0,38,0.00,,---,0.00,VWS V13.01,2013-01-27 21:12:00,
2013-01-27 14:17:00,46.0,22.5,25.31,North,0,0.0,0.0,39,0.00,,---,0.00,VWS V13.01,2013-01-27 21:17:00,
2013-01-27 14:22:00,45.7,22.2,25.31,North,0,0.0,0.0,39,0.00,,---,0.00,VWS V13.01,2013-01-27 21:22:00,
2013-01-27 14:27:00,45.3,21.8,25.31,North,0,0.0,0.0,39,0.00,,---,0.00,VWS V13.01,2013-01-27 21:27:00,
2013-01-27 14:32:00,45.1,22.3,25.31,North,0,0.0,0.0,40,0.00,,---,0.00,VWS V13.01,2013-01-27 21:32:00,
2013-01-27 14:37:00,44.8,22.5,25.31,North,0,0.0,0.0,41,0.00,,---,0.00,VWS V13.01,2013-01-27 21:37:00,
2013-01-27 14:42:00,44.4,22.8,25.31,North,0,0.0,0.0,42,0.00,,---,0.00,VWS V13.01,2013-01-27 21:42:00,
2013-01-27 14:47:00,44.1,23.0,25.31,North,0,0.0,0.0,43,0.00,,---,0.00,VWS V13.01,2013-01-27 21:47:00,
2013-01-27 14:52:00,43.7,23.2,25.31,North,0,0.0,0.0,44,0.00,,---,0.00,VWS V13.01,2013-01-27 21:52:00,
2013-01-27 14:57:00,43.7,23.2,25.31,North,0,0.0,0.0,44,0.00,,---,0.00,VWS V13.01,2013-01-27 21:57:00,
2013-01-27 15:02:00,43.5,23.6,25.31,North,0,0.0,0.0,45,0.00,,---,0.00,VWS V13.01,2013-01-27 22:02:00,
2013-01-27 15:07:00,43.2,23.3,25.31,North,0,0.0,0.0,45,0.00,,---,0.00,VWS V13.01,2013-01-27 22:07:00,
2013-01-27 15:12:00,42.8,23.0,25.31,North,0,0.0,0.0,45,0.00,,---,0.00,VWS V13.01,2013-01-27 22:12:00,
2013-01-27 15:17:00,42.4,23.6,25.31,North,0,0.0,0.0,47,0.00,,---,0.00,VWS V13.01,2013-01-27 22:17:00,
2013-01-27 15:22:00,42.4,24.1,25.31,North,0,0.0,0.0,48,0.00,,---,0.00,VWS V13.01,2013-01-27 22:22:00,
2013-01-27 15:28:00,42.3,24.0,25.31,North,0,0.0,0.0,48,0.00,,---,0.00,VWS V13.01,2013-01-27 22:28:00,
2013-01-27 15:33:00,41.9,23.7,25.31,North,0,0.0,0.0,48,0.00,,---,0.00,VWS V13.01,2013-01-27 22:33:00,
2013-01-27 15:37:00,41.5,23.8,25.31,North,0,0.0,0.0,49,0.00,,---,0.00,VWS V13.01,2013-01-27 22:37:00,
2013-01-27 15:42:00,41.2,23.5,25.31,North,0,0.0,0.0,49,0.00,,---,0.00,VWS V13.01,2013-01-27 22:42:00,
2013-01-27 15:47:00,40.8,23.6,25.31,North,0,0.0,0.0,50,0.00,,---,0.00,VWS V13.01,2013-01-27 22:47:00,
2013-01-27 15:52:00,40.5,23.8,25.31,North,0,0.0,0.0,51,0.00,,---,0.00,VWS V13.01,2013-01-27 22:52:00,
2013-01-27 15:57:00,39.9,23.3,25.31,North,0,0.0,0.0,51,0.00,,---,0.00,VWS V13.01,2013-01-27 22:57:00,
2013-01-27 16:02:00,39.4,22.8,25.31,North,0,0.0,0.0,51,0.00,,---,0.00,VWS V13.01,2013-01-27 23:02:00,
2013-01-27 16:07:00,39.0,23.4,25.31,North,0,0.0,0.0,53,0.00,,---,0.00,VWS V13.01,2013-01-27 23:07:00,
2013-01-27 16:12:00,38.5,22.9,25.31,North,0,0.0,0.0,53,0.00,,---,0.00,VWS V13.01,2013-01-27 23:12:00,
2013-01-27 16:17:00,37.9,22.8,25.31,North,0,0.0,0.0,54,0.00,,---,0.00,VWS V13.01,2013-01-27 23:17:00,
2013-01-27 16:22:00,37.4,22.7,25.31,North,0,0.0,0.0,55,0.00,,---,0.00,VWS V13.01,2013-01-27 23:22:00,
2013-01-27 16:27:00,36.9,24.3,25.31,North,0,0.0,0.0,60,0.00,,---,0.00,VWS V13.01,2013-01-27 23:27:00,
2013-01-27 16:32:00,36.5,23.5,25.31,North,0,0.0,0.0,59,0.00,,---,0.00,VWS V13.01,2013-01-27 23:32:00,
2013-01-27 16:37:00,35.8,22.5,25.31,North,0,0.0,0.0,58,0.00,,---,0.00,VWS V13.01,2013-01-27 23:37:00,
2013-01-27 16:42:00,35.1,22.2,25.31,North,0,0.0,0.0,59,0.00,,---,0.00,VWS V13.01,2013-01-27 23:42:00,
2013-01-27 16:47:00,34.3,21.5,25.31,North,0,0.0,0.0,59,0.00,,---,0.00,VWS V13.01,2013-01-27 23:47:00,
2013-01-27 16:52:00,33.8,21.8,25.31,North,0,0.0,0.0,61,0.00,,---,0.00,VWS V13.01,2013-01-27 23:52:00,
2013-01-27 16:57:00,33.3,21.7,25.31,North,0,0.0,0.0,62,0.00,,---,0.00,VWS V13.01,2013-01-27 23:57:00,
2013-01-27 17:02:00,33.1,23.0,25.31,North,0,0.0,0.0,66,0.00,,---,0.00,VWS V13.01,2013-01-28 00:02:00,
2013-01-27 17:07:00,32.5,24.2,25.34,North,0,0.0,0.0,71,0.00,,---,0.00,VWS V13.01,2013-01-28 00:07:00,
2013-01-27 17:12:00,32.2,23.9,25.34,North,0,0.0,0.0,71,0.00,,---,0.00,VWS V13.01,2013-01-28 00:12:00,
2013-01-27 17:17:00,31.5,22.8,25.34,North,0,0.0,0.0,70,0.00,,---,0.00,VWS V13.01,2013-01-28 00:17:00,
2013-01-27 17:22:00,30.9,22.6,25.34,North,0,0.0,0.0,71,0.00,,---,0.00,VWS V13.01,2013-01-28 00:22:00,
2013-01-27 17:27:00,30.4,22.5,25.34,North,0,0.0,0.0,72,0.00,,---,0.00,VWS V13.01,2013-01-28 00:27:00,
2013-01-27 17:32:00,30.2,22.9,25.34,North,0,0.0,0.0,74,0.00,,---,0.00,VWS V13.01,2013-01-28 00:32:00,
2013-01-27 17:37:00,30.0,24.0,25.34,North,0,0.0,0.0,78,0.00,,---,0.00,VWS V13.01,2013-01-28 00:37:00,
2013-01-27 17:42:00,29.7,24.3,25.34,North,0,0.0,0.0,80,0.00,,---,0.00,VWS V13.01,2013-01-28 00:42:00,
2013-01-27 17:47:00,29.3,23.6,25.34,North,0,0.0,0.0,79,0.00,,---,0.00,VWS V13.01,2013-01-28 00:47:00,
2013-01-27 17:52:00,29.1,23.4,25.34,North,0,0.0,0.0,79,0.00,,---,0.00,VWS V13.01,2013-01-28 00:52:00,
2013-01-27 17:57:00,28.6,22.9,25.34,North,0,0.0,0.0,79,0.00,,---,0.00,VWS V13.01,2013-01-28 00:57:00,
2013-01-27 18:02:00,28.0,22.7,25.34,North,0,0.0,0.0,80,0.00,,---,0.00,VWS V13.01,2013-01-28 01:02:00,
2013-01-27 18:07:00,27.5,22.1,25.34,North,0,0.0,0.0,80,0.00,,---,0.00,VWS V13.01,2013-01-28 01:07:00,
2013-01-27 18:12:00,27.1,21.8,25.34,North,0,0.0,0.0,80,0.00,,---,0.00,VWS V13.01,2013-01-28 01:12:00,
2013-01-27 18:17:00,26.8,21.7,25.34,North,0,0.0,0.0,81,0.00,,---,0.00,VWS V13.01,2013-01-28 01:17:00,
2013-01-27 18:22:00,26.6,21.9,25.34,North,0,0.0,0.0,82,0.00,,---,0.00,VWS V13.01,2013-01-28 01:22:00,
2013-01-27 18:27:00,26.2,21.5,25.34,North,0,0.0,0.0,82,0.00,,---,0.00,VWS V13.01,2013-01-28 01:27:00,
2013-01-27 18:32:00,26.1,21.6,25.34,North,0,0.0,0.0,83,0.00,,---,0.00,VWS V13.01,2013-01-28 01:32:00,
2013-01-27 18:37:00,25.7,21.3,25.34,North,0,0.0,0.0,83,0.00,,---,0.00,VWS V13.01,2013-01-28 01:37:00,
2013-01-27 18:42:00,25.5,21.4,25.34,North,0,0.0,0.0,84,0.00,,---,0.00,VWS V13.01,2013-01-28 01:42:00,
2013-01-27 18:47:00,25.2,21.0,25.34,North,0,0.0,0.0,84,0.00,,---,0.00,VWS V13.01,2013-01-28 01:47:00,
2013-01-27 18:52:00,25.2,21.3,25.37,North,0,0.0,0.0,85,0.00,,---,0.00,VWS V13.01,2013-01-28 01:52:00,
2013-01-27 18:57:00,25.3,21.8,25.37,North,0,0.0,0.0,86,0.00,,---,0.00,VWS V13.01,2013-01-28 01:57:00,
2013-01-27 19:02:00,25.3,22.0,25.37,North,0,0.0,0.0,87,0.00,,---,0.00,VWS V13.01,2013-01-28 02:02:00,
2013-01-27 19:07:00,25.5,22.5,25.34,North,0,0.0,0.0,88,0.00,,---,0.00,VWS V13.01,2013-01-28 02:07:00,
2013-01-27 19:12:00,25.3,22.3,25.34,North,0,0.0,0.0,88,0.00,,---,0.00,VWS V13.01,2013-01-28 02:12:00,
2013-01-27 19:17:00,25.3,22.6,25.34,North,0,0.0,0.0,89,0.00,,---,0.00,VWS V13.01,2013-01-28 02:17:00,
2013-01-27 19:22:00,25.2,22.4,25.37,North,0,0.0,0.0,89,0.00,,---,0.00,VWS V13.01,2013-01-28 02:22:00,
2013-01-27 19:27:00,24.6,21.9,25.37,North,0,0.0,0.0,89,0.00,,---,0.00,VWS V13.01,2013-01-28 02:27:00,
2013-01-27 19:32:00,25.0,22.2,25.37,North,0,0.0,0.0,89,0.00,,---,0.00,VWS V13.01,2013-01-28 02:32:00,
2013-01-27 19:37:00,24.3,21.8,25.37,North,0,0.0,0.0,90,0.00,,---,0.00,VWS V13.01,2013-01-28 02:37:00,
2013-01-27 19:42:00,24.3,21.8,25.37,North,0,0.0,0.0,90,0.00,,---,0.00,VWS V13.01,2013-01-28 02:42:00,
2013-01-27 19:47:00,24.6,22.4,25.37,North,0,0.0,0.0,91,0.00,,---,0.00,VWS V13.01,2013-01-28 02:47:00,
2013-01-27 19:52:00,24.4,22.2,25.37,North,0,0.0,0.0,91,0.00,,---,0.00,VWS V13.01,2013-01-28 02:52:00,
2013-01-27 19:57:00,24.3,22.0,25.37,North,0,0.0,0.0,91,0.00,,---,0.00,VWS V13.01,2013-01-28 02:57:00,
2013-01-27 20:02:00,23.9,21.7,25.37,North,0,0.0,0.0,91,0.00,,---,0.00,VWS V13.01,2013-01-28 03:02:00,
2013-01-27 20:07:00,23.7,21.5,25.37,North,0,0.0,0.0,91,0.00,,---,0.00,VWS V13.01,2013-01-28 03:07:00,
2013-01-27 20:12:00,23.5,21.3,25.37,North,0,0.0,0.0,91,0.00,,---,0.00,VWS V13.01,2013-01-28 03:12:00,
2013-01-27 20:17:00,23.5,21.3,25.37,North,0,0.0,0.0,91,0.00,,---,0.00,VWS V13.01,2013-01-28 03:17:00,
2013-01-27 20:22:00,23.7,21.5,25.37,North,0,0.0,0.0,91,0.00,,---,0.00,VWS V13.01,2013-01-28 03:22:00,
2013-01-27 20:27:00,23.5,21.6,25.37,North,0,0.0,0.0,92,0.00,,---,0.00,VWS V13.01,2013-01-28 03:27:00,
2013-01-27 20:32:00,23.5,21.6,25.37,North,0,0.0,0.0,92,0.00,,---,0.00,VWS V13.01,2013-01-28 03:32:00,
2013-01-27 20:37:00,24.3,22.5,25.34,North,0,0.0,0.0,93,0.00,,---,0.00,VWS V13.01,2013-01-28 03:37:00,
2013-01-27 20:42:00,24.3,22.8,25.34,North,0,0.0,0.0,94,0.00,,---,0.00,VWS V13.01,2013-01-28 03:42:00,
2013-01-27 20:47:00,24.3,22.8,25.34,North,0,0.0,0.0,94,0.00,,---,0.00,VWS V13.01,2013-01-28 03:47:00,
2013-01-27 20:52:00,24.4,23.0,25.37,North,0,0.0,0.0,94,0.00,,---,0.00,VWS V13.01,2013-01-28 03:52:00,
2013-01-27 20:57:00,24.4,23.2,25.37,North,0,0.0,0.0,95,0.00,,---,0.00,VWS V13.01,2013-01-28 03:57:00,
2013-01-27 21:02:00,24.3,23.0,25.37,North,0,0.0,0.0,95,0.00,,---,0.00,VWS V13.01,2013-01-28 04:02:00,
2013-01-27 21:07:00,24.4,23.2,25.37,North,0,0.0,0.0,95,0.00,,---,0.00,VWS V13.01,2013-01-28 04:07:00,
2013-01-27 21:12:00,24.4,23.2,25.37,North,0,0.0,0.0,95,0.00,,---,0.00,VWS V13.01,2013-01-28 04:12:00,
2013-01-27 21:17:00,24.1,22.9,25.37,North,0,0.0,0.0,95,0.00,,---,0.00,VWS V13.01,2013-01-28 04:17:00,
2013-01-27 21:22:00,23.5,22.6,25.37,North,0,0.0,0.0,96,0.00,,---,0.00,VWS V13.01,2013-01-28 04:22:00,
2013-01-27 21:27:00,23.4,22.1,25.37,North,0,0.0,0.0,95,0.00,,---,0.00,VWS V13.01,2013-01-28 04:27:00,
2013-01-27 21:32:00,23.4,22.1,25.37,North,0,0.0,0.0,95,0.00,,---,0.00,VWS V13.01,2013-01-28 04:32:00,
2013-01-27 21:37:00,23.4,22.1,25.37,North,0,0.0,0.0,95,0.00,,---,0.00,VWS V13.01,2013-01-28 04:37:00,
2013-01-27 21:42:00,23.4,22.1,25.37,North,0,0.0,0.0,95,0.00,,---,0.00,VWS V13.01,2013-01-28 04:42:00,
2013-01-27 21:47:00,23.0,21.8,25.37,North,0,0.0,0.0,95,0.00,,---,0.00,VWS V13.01,2013-01-28 04:47:00,
2013-01-27 21:52:00,22.8,21.6,25.37,North,0,0.0,0.0,95,0.00,,---,0.00,VWS V13.01,2013-01-28 04:52:00,
2013-01-27 21:57:00,22.8,21.6,25.37,North,0,0.0,0.0,95,0.00,,---,0.00,VWS V13.01,2013-01-28 04:57:00,
2013-01-27 22:00:00,22.8,21.6,25.37,North,0,0.0,0.0,95,0.00,,---,0.00,VWS V13.01,2013-01-28 05:00:00,
2013-01-27 22:02:00,22.8,21.6,25.37,North,0,0.0,0.0,95,0.00,,---,0.00,VWS V13.01,2013-01-28 05:02:00,
2013-01-27 22:03:00,22.8,21.6,25.37,North,0,0.0,0.0,95,0.00,,---,0.00,VWS V13.01,2013-01-28 05:03:00,
2013-01-27 22:08:00,22.6,21.4,25.37,North,0,0.0,0.0,95,0.00,,---,0.00,VWS V13.01,2013-01-28 05:08:00,
2013-01-27 22:13:00,22.3,20.8,25.37,North,0,0.0,0.0,94,0.00,,---,0.00,VWS V13.01,2013-01-28 05:13:00,
2013-01-27 22:18:00,22.3,20.8,25.37,North,0,0.0,0.0,94,0.00,,---,0.00,VWS V13.01,2013-01-28 05:18:00,
2013-01-27 22:23:00,22.5,21.0,25.37,North,0,0.0,0.0,94,0.00,,---,0.00,VWS V13.01,2013-01-28 05:23:00,
2013-01-27 22:28:00,22.1,20.6,25.37,North,0,0.0,0.0,94,0.00,,---,0.00,VWS V13.01,2013-01-28 05:28:00,
2013-01-27 22:33:00,22.3,20.8,25.37,North,0,0.0,0.0,94,0.00,,---,0.00,VWS V13.01,2013-01-28 05:33:00,
2013-01-27 22:38:00,22.1,20.6,25.37,North,0,0.0,0.0,94,0.00,,---,0.00,VWS V13.01,2013-01-28 05:38:00,
2013-01-27 22:43:00,22.1,20.6,25.37,North,0,0.0,0.0,94,0.00,,---,0.00,VWS V13.01,2013-01-28 05:43:00,
2013-01-27 22:48:00,22.1,20.6,25.37,North,0,0.0,0.0,94,0.00,,---,0.00,VWS V13.01,2013-01-28 05:48:00,
2013-01-27 22:53:00,22.1,20.6,25.37,North,0,0.0,0.0,94,0.00,,---,0.00,VWS V13.01,2013-01-28 05:53:00,
2013-01-27 22:58:00,21.9,20.5,25.37,North,0,0.0,0.0,94,0.00,,---,0.00,VWS V13.01,2013-01-28 05:58:00,
2013-01-27 23:03:00,21.9,20.5,25.37,North,0,0.0,0.0,94,0.00,,---,0.00,VWS V13.01,2013-01-28 06:03:00,
2013-01-27 23:08:00,21.7,20.3,25.37,North,0,0.0,0.0,94,0.00,,---,0.00,VWS V13.01,2013-01-28 06:08:00,
2013-01-27 23:13:00,21.6,19.9,25.37,North,0,0.0,0.0,93,0.00,,---,0.00,VWS V13.01,2013-01-28 06:13:00,
2013-01-27 23:18:00,21.6,20.1,25.37,North,0,0.0,0.0,94,0.00,,---,0.00,VWS V13.01,2013-01-28 06:18:00,
2013-01-27 23:23:00,21.6,19.9,25.37,North,0,0.0,0.0,93,0.00,,---,0.00,VWS V13.01,2013-01-28 06:23:00,
2013-01-27 23:28:00,21.7,20.0,25.37,North,0,0.0,0.0,93,0.00,,---,0.00,VWS V13.01,2013-01-28 06:28:00,
2013-01-27 23:33:00,21.7,20.0,25.37,North,0,0.0,0.0,93,0.00,,---,0.00,VWS V13.01,2013-01-28 06:33:00,
2013-01-27 23:38:00,21.9,20.2,25.37,North,0,0.0,0.0,93,0.00,,---,0.00,VWS V13.01,2013-01-28 06:38:00,
2013-01-27 23:43:00,22.3,20.8,25.37,North,0,0.0,0.0,94,0.00,,---,0.00,VWS V13.01,2013-01-28 06:43:00,
2013-01-27 23:48:00,22.1,20.6,25.37,North,0,0.0,0.0,94,0.00,,---,0.00,VWS V13.01,2013-01-28 06:48:00,
2013-01-27 23:53:00,21.7,20.3,25.37,North,0,0.0,0.0,94,0.00,,---,0.00,VWS V13.01,2013-01-28 06:53:00,
2013-01-27 23:58:00,21.9,20.5,25.37,North,0,0.0,0.0,94,0.00,,---,0.00,VWS V13.01,2013-01-28 06:58:00,